This is the latest recevied weather packets stored in our database for station/object W5ITZ. If no packets are shown the sender has not sent any weather packets the latest 10 day(s).
| Time | Temp. | Humidity | Pressure | Rain* | Wind** | Luminosity | Snow |
|---|---|---|---|---|---|---|---|
| 1777420981 | 26.67° C | 83% | 1010.6 hPa | 0 mm | - | 102 W/m² | - |
| 1777420678 | 26.67° C | 83% | 1010.8 hPa | 0 mm | - | 91 W/m² | - |
| 1777420374 | 26.67° C | 83% | 1010.7 hPa | 0 mm | - | 100 W/m² | - |
| 1777420070 | 26.67° C | 83% | 1010.7 hPa | 0 mm | - | 96 W/m² | - |
| 1777419767 | 26.67° C | 83% | 1010.7 hPa | 0 mm | - | 111 W/m² | - |
| 1777419465 | 26.67° C | 83% | 1010.7 hPa | 0 mm | - | 87 W/m² | - |
| 1777419164 | 27.22° C | 83% | 1010.7 hPa | 0 mm | - | 104 W/m² | - |
| 1777418859 | 27.22° C | 82% | 1010.8 hPa | 0 mm | - | 125 W/m² | - |
| 1777418555 | 27.22° C | 82% | 1010.9 hPa | 0 mm | - | 147 W/m² | - |
| 1777418252 | 27.22° C | 82% | 1011 hPa | 0 mm | - | 118 W/m² | - |
| 1777417947 | 27.22° C | 82% | 1011 hPa | 0 mm | - | 113 W/m² | - |
| 1777417644 | 27.22° C | 81% | 1011.1 hPa | 0 mm | - | 127 W/m² | - |
| 1777417338 | 27.22° C | 81% | 1011 hPa | 0 mm | - | 196 W/m² | - |
| 1777417036 | 27.22° C | 81% | 1011.1 hPa | 0 mm | - | 125 W/m² | - |
| 1777416731 | 27.78° C | 80% | 1011.2 hPa | 0 mm | - | 144 W/m² | - |
| 1777416427 | 27.78° C | 81% | 1010.9 hPa | 0 mm | - | 170 W/m² | - |
| 1777416122 | 27.78° C | 81% | 1010.8 hPa | 0 mm | - | 200 W/m² | - |
| 1777415816 | 27.78° C | 80% | 1011 hPa | 0 mm | - | 253 W/m² | - |
| 1777415513 | 27.78° C | 80% | 1010.8 hPa | 0 mm | - | 236 W/m² | - |
| 1777415209 | 27.78° C | 79% | 1011.1 hPa | 0 mm | - | 219 W/m² | - |
| 1777414904 | 27.78° C | 80% | 1011.1 hPa | 0 mm | - | 195 W/m² | - |
| 1777414603 | 28.33° C | 79% | 1011.4 hPa | 0 mm | - | 228 W/m² | - |
| 1777414298 | 28.33° C | 78% | 1011.5 hPa | 0 mm | - | 234 W/m² | - |
| 1777413993 | 28.33° C | 78% | 1011.7 hPa | 0 mm | - | 550 W/m² | - |
| 1777413688 | 28.33° C | 78% | 1011.6 hPa | 0 mm | - | 262 W/m² | - |
* Rain latest hour (hover to see other rain measurements)
** Current wind speed in m/s (hover to see current wind gust speed)